NKS4BK KSEA-KSLC

Flight info

Callsign NKS4BK
Flight time 1h 41m
Altitude 39000
Route SUMMA2 SUMMA WANTA Q154 BYI SKEES6
Aircraft A20N/M-SDE2E3FGHIRWXY/LB1

Departure

Time 2026-05-05 20:53
Airport Seattle–Tacoma International Airport (KSEA)

Arrival

Time 2026-05-05 22:35
Airport Salt Lake City International Airport (KSLC)
Time Latitude Longitude Altitude Speed Heading
2026-05-05 20:33 47.44898 -122.30181 405 ft 0 kts 252°
2026-05-05 20:41 47.44898 -122.30180 405 ft 0 kts 252°
2026-05-05 20:41 47.44902 -122.30164 404 ft 2 kts 251°
2026-05-05 20:41 47.44907 -122.30144 403 ft 2 kts 251°
2026-05-05 20:41 47.44912 -122.30122 402 ft 2 kts 251°
2026-05-05 20:42 47.44917 -122.30101 401 ft 2 kts 255°
2026-05-05 20:42 47.44917 -122.30080 400 ft 2 kts 284°
2026-05-05 20:42 47.44911 -122.30061 399 ft 0 kts 307°
2026-05-05 20:42 47.44907 -122.30054 398 ft 1 kts 313°
2026-05-05 20:43 47.44905 -122.30051 398 ft 0 kts 311°
2026-05-05 20:45 47.44909 -122.30058 399 ft 2 kts 311°
2026-05-05 20:45 47.44927 -122.30090 401 ft 4 kts 309°
2026-05-05 20:45 47.44953 -122.30138 404 ft 7 kts 310°
2026-05-05 20:46 47.44994 -122.30205 408 ft 10 kts 309°
2026-05-05 20:46 47.45031 -122.30321 411 ft 15 kts 276°
2026-05-05 20:46 47.45033 -122.30512 412 ft 21 kts 270°
2026-05-05 20:46 47.45128 -122.30627 415 ft 19 kts
2026-05-05 20:47 47.45253 -122.30625 421 ft 16 kts
2026-05-05 20:47 47.45358 -122.30624 426 ft 13 kts
2026-05-05 20:47 47.45446 -122.30621 429 ft 11 kts
2026-05-05 20:47 47.45528 -122.30621 431 ft 12 kts
2026-05-05 20:48 47.45614 -122.30618 433 ft 12 kts
2026-05-05 20:48 47.45706 -122.30619 437 ft 14 kts
2026-05-05 20:48 47.45811 -122.30617 439 ft 15 kts
2026-05-05 20:48 47.45920 -122.30616 445 ft 15 kts
2026-05-05 20:49 47.46032 -122.30615 448 ft 17 kts
2026-05-05 20:49 47.46161 -122.30615 448 ft 20 kts
2026-05-05 20:49 47.46287 -122.30613 436 ft 10 kts
2026-05-05 20:49 47.46363 -122.30637 424 ft 0 kts 316°
2026-05-05 20:51 47.46364 -122.30637 424 ft 1 kts 316°
2026-05-05 20:52 47.46370 -122.30647 423 ft 0 kts 308°
2026-05-05 20:52 47.46381 -122.30701 415 ft 12 kts 264°
2026-05-05 20:52 47.46329 -122.30776 415 ft 10 kts 182°
2026-05-05 20:52 47.46315 -122.30776 417 ft 0 kts 181°
2026-05-05 20:53 47.46234 -122.30778 425 ft 44 kts 180°
2026-05-05 20:53 47.45643 -122.30789 433 ft 122 kts 179°
2026-05-05 20:53 47.44578 -122.30763 471 ft 178 kts 179°
2026-05-05 20:53 47.43298 -122.30757 1109 ft 187 kts 184°
2026-05-05 20:54 47.42154 -122.31352 2072 ft 177 kts 219°
2026-05-05 20:54 47.41257 -122.32548 2938 ft 180 kts 217°
2026-05-05 20:54 47.40028 -122.33118 3530 ft 199 kts 181°
2026-05-05 20:54 47.38573 -122.32878 4138 ft 220 kts 171°
2026-05-05 20:55 47.37003 -122.32492 4737 ft 242 kts 172°
2026-05-05 20:55 47.35274 -122.32146 5398 ft 263 kts 174°
2026-05-05 20:55 47.33383 -122.31862 6175 ft 280 kts 175°
2026-05-05 20:55 47.31422 -122.31627 7148 ft 287 kts 176°
2026-05-05 20:56 47.29425 -122.31414 8171 ft 292 kts 176°
2026-05-05 20:56 47.27389 -122.31207 9160 ft 297 kts 176°
2026-05-05 20:56 47.25315 -122.30998 10104 ft 302 kts 176°
2026-05-05 20:56 47.23234 -122.30486 10868 ft 313 kts 162°
2026-05-05 20:57 47.21249 -122.29150 11641 ft 320 kts 147°
2026-05-05 20:57 47.19274 -122.27573 12504 ft 327 kts 156°
2026-05-05 20:57 47.17098 -122.26455 13360 ft 333 kts 161°
2026-05-05 20:57 47.14887 -122.25456 14184 ft 338 kts 161°
2026-05-05 20:58 47.12616 -122.24412 15009 ft 343 kts 160°
2026-05-05 20:58 47.10345 -122.23329 15794 ft 349 kts 160°
2026-05-05 20:58 47.08025 -122.22191 16551 ft 355 kts 159°
2026-05-05 20:58 47.05673 -122.21014 17302 ft 360 kts 159°
2026-05-05 20:59 47.03285 -122.19810 18037 ft 366 kts 158°
2026-05-05 20:59 47.00867 -122.18583 18767 ft 371 kts 158°
2026-05-05 20:59 46.98405 -122.17332 19414 ft 375 kts 158°
2026-05-05 20:59 46.95936 -122.16079 20143 ft 380 kts 158°
2026-05-05 21:00 46.93428 -122.14807 20865 ft 384 kts 158°
2026-05-05 21:00 46.90888 -122.13521 21558 ft 390 kts 158°
2026-05-05 21:00 46.88326 -122.12225 22249 ft 395 kts 158°
2026-05-05 21:00 46.85705 -122.10902 22954 ft 399 kts 159°
2026-05-05 21:01 46.83067 -122.09570 23659 ft 402 kts 159°
2026-05-05 21:01 46.80434 -122.08242 24346 ft 406 kts 159°
2026-05-05 21:01 46.77750 -122.06892 24993 ft 410 kts 159°
2026-05-05 21:01 46.75045 -122.05531 25617 ft 414 kts 159°
2026-05-05 21:02 46.72330 -122.04166 26211 ft 417 kts 159°
2026-05-05 21:02 46.69574 -122.02783 26797 ft 421 kts 159°
2026-05-05 21:02 46.66790 -122.01387 27386 ft 424 kts 159°
2026-05-05 21:02 46.64036 -121.99843 27939 ft 425 kts 150°
2026-05-05 21:03 46.61620 -121.97403 28473 ft 421 kts 133°
2026-05-05 21:03 46.59774 -121.94166 28988 ft 415 kts 117°
2026-05-05 21:03 46.58332 -121.90555 29492 ft 416 kts 114°
2026-05-05 21:03 46.56914 -121.86813 29937 ft 419 kts 114°
2026-05-05 21:04 46.55487 -121.83079 30350 ft 423 kts 114°
2026-05-05 21:04 46.54046 -121.79363 30759 ft 426 kts 115°
2026-05-05 21:04 46.52582 -121.75635 31151 ft 429 kts 115°
2026-05-05 21:04 46.51079 -121.71840 31548 ft 431 kts 115°
2026-05-05 21:05 46.49578 -121.68070 31909 ft 434 kts 115°
2026-05-05 21:05 46.48051 -121.64239 32259 ft 437 kts 115°
2026-05-05 21:05 46.46510 -121.60435 32709 ft 438 kts 116°
2026-05-05 21:05 46.44935 -121.56726 33228 ft 436 kts 117°
2026-05-05 21:06 46.43333 -121.53014 33738 ft 434 kts 117°
2026-05-05 21:06 46.41741 -121.49332 34215 ft 433 kts 117°
2026-05-05 21:06 46.40152 -121.45651 34680 ft 432 kts 116°
2026-05-05 21:06 46.38562 -121.41965 35145 ft 431 kts 116°
2026-05-05 21:07 46.36960 -121.38246 35588 ft 431 kts 116°
2026-05-05 21:07 46.35385 -121.34589 36021 ft 430 kts 116°
2026-05-05 21:07 46.33800 -121.30913 36456 ft 429 kts 116°
2026-05-05 21:07 46.32222 -121.27258 36874 ft 428 kts 116°
2026-05-05 21:08 46.30644 -121.23605 37235 ft 428 kts 116°
2026-05-05 21:08 46.29063 -121.19950 37547 ft 430 kts 116°
2026-05-05 21:08 46.27478 -121.16286 37887 ft 429 kts 116°
2026-05-05 21:08 46.25904 -121.12656 38197 ft 430 kts 116°
2026-05-05 21:09 46.24307 -121.08978 38451 ft 432 kts 116°
2026-05-05 21:09 46.22711 -121.05306 38677 ft 434 kts 115°
2026-05-05 21:09 46.21096 -121.01597 38910 ft 436 kts 116°
2026-05-05 21:09 46.19474 -120.97875 38988 ft 438 kts 116°
2026-05-05 21:10 46.16230 -120.90454 39000 ft 438 kts 116°
2026-05-05 21:10 46.12970 -120.83021 39008 ft 439 kts 116°
2026-05-05 21:11 46.09712 -120.75608 39011 ft 441 kts 115°
2026-05-05 21:11 46.06392 -120.68059 39018 ft 450 kts 116°
2026-05-05 21:12 46.03034 -120.60464 39014 ft 453 kts 116°
2026-05-05 21:12 45.99632 -120.52793 39013 ft 453 kts 116°
2026-05-05 21:13 45.96220 -120.45111 39007 ft 458 kts 116°
2026-05-05 21:13 45.92760 -120.37338 38988 ft 467 kts 116°
2026-05-05 21:14 45.89222 -120.29417 38963 ft 474 kts 117°
2026-05-05 21:14 45.85644 -120.21439 38952 ft 480 kts 117°
2026-05-05 21:15 45.82024 -120.13387 38933 ft 484 kts 117°
2026-05-05 21:15 45.78366 -120.05273 38918 ft 484 kts 117°
2026-05-05 21:16 45.74739 -119.97247 38905 ft 485 kts 117°
2026-05-05 21:16 45.71075 -119.89168 38906 ft 485 kts 116°
2026-05-05 21:17 45.67395 -119.81073 38913 ft 484 kts 116°
2026-05-05 21:17 45.63736 -119.73045 38930 ft 484 kts 116°
2026-05-05 21:18 45.60070 -119.65018 38943 ft 484 kts 116°
2026-05-05 21:18 45.56378 -119.56964 38952 ft 484 kts 116°
2026-05-05 21:19 45.52691 -119.48944 38964 ft 484 kts 116°
2026-05-05 21:19 45.48994 -119.40922 38975 ft 484 kts 116°
2026-05-05 21:20 45.45294 -119.32918 38986 ft 484 kts 117°
2026-05-05 21:20 45.41587 -119.24918 38987 ft 485 kts 117°
2026-05-05 21:21 45.37876 -119.16937 39006 ft 484 kts 117°
2026-05-05 21:21 45.34131 -119.08904 39016 ft 485 kts 117°
2026-05-05 21:22 45.30415 -119.00954 39024 ft 485 kts 117°
2026-05-05 21:22 45.26658 -118.92937 39030 ft 486 kts 116°
2026-05-05 21:23 45.22910 -118.84966 39028 ft 486 kts 116°
2026-05-05 21:23 45.19207 -118.77129 39036 ft 465 kts 116°
2026-05-05 21:24 45.15657 -118.69624 39037 ft 455 kts 116°
2026-05-05 21:24 45.12128 -118.62152 39039 ft 456 kts 116°
2026-05-05 21:25 45.08597 -118.54713 39039 ft 455 kts 116°
2026-05-05 21:25 45.05049 -118.47260 39044 ft 456 kts 116°
2026-05-05 21:26 45.01501 -118.39831 39043 ft 456 kts 116°
2026-05-05 21:26 44.97844 -118.32508 39050 ft 459 kts 120°
2026-05-05 21:27 44.93974 -118.25308 39050 ft 458 kts 120°
2026-05-05 21:27 44.90129 -118.18177 39050 ft 459 kts 120°
2026-05-05 21:28 44.86272 -118.11030 39047 ft 459 kts 120°
2026-05-05 21:28 44.82388 -118.03849 39042 ft 460 kts 120°
2026-05-05 21:29 44.78511 -117.96697 39018 ft 459 kts 120°
2026-05-05 21:29 44.74634 -117.89566 39047 ft 459 kts 120°
2026-05-05 21:30 44.70757 -117.82449 39088 ft 459 kts 120°
2026-05-05 21:30 44.66893 -117.75371 39015 ft 458 kts 120°
2026-05-05 21:31 44.63020 -117.68296 39001 ft 458 kts 120°
2026-05-05 21:31 44.59158 -117.61260 38991 ft 458 kts 120°
2026-05-05 21:32 44.55255 -117.54167 38983 ft 458 kts 120°
2026-05-05 21:32 44.51375 -117.47131 38985 ft 457 kts 120°
2026-05-05 21:33 44.47492 -117.40105 38970 ft 456 kts 120°
2026-05-05 21:33 44.43593 -117.33065 38975 ft 457 kts 120°
2026-05-05 21:34 44.41647 -117.29556 38844 ft 458 kts 120°
2026-05-05 21:34 44.39713 -117.26078 38906 ft 459 kts 120°
2026-05-05 21:34 44.35808 -117.18996 38944 ft 456 kts 118°
2026-05-05 21:35 44.32441 -117.12171 38930 ft 453 kts 116°
2026-05-05 21:35 44.28908 -117.04907 38907 ft 454 kts 116°
2026-05-05 21:36 44.25374 -116.97669 38886 ft 452 kts 116°
2026-05-05 21:36 44.23604 -116.94050 38759 ft 452 kts 116°
2026-05-05 21:36 44.21836 -116.90438 38838 ft 453 kts 116°
2026-05-05 21:37 44.18289 -116.83212 38886 ft 454 kts 116°
2026-05-05 21:37 44.14722 -116.75970 38873 ft 454 kts 116°
2026-05-05 21:38 44.11140 -116.68713 38879 ft 455 kts 116°
2026-05-05 21:38 44.07560 -116.61477 38882 ft 454 kts 116°
2026-05-05 21:39 44.03978 -116.54254 38884 ft 454 kts 116°
2026-05-05 21:39 44.00390 -116.47042 38889 ft 454 kts 116°
2026-05-05 21:40 43.96814 -116.39869 38893 ft 454 kts 116°
2026-05-05 21:40 43.93192 -116.32616 38905 ft 456 kts 117°
2026-05-05 21:41 43.89585 -116.25418 38915 ft 455 kts 117°
2026-05-05 21:41 43.85978 -116.18235 38927 ft 456 kts 117°
2026-05-05 21:42 43.82352 -116.11028 38936 ft 456 kts 117°
2026-05-05 21:42 43.78711 -116.03817 38928 ft 455 kts 117°
2026-05-05 21:43 43.75095 -115.96669 38931 ft 455 kts 117°
2026-05-05 21:43 43.71473 -115.89524 38945 ft 454 kts 117°
2026-05-05 21:44 43.67844 -115.82381 38942 ft 455 kts 117°
2026-05-05 21:44 43.64199 -115.75230 38961 ft 455 kts 117°
2026-05-05 21:45 43.60404 -115.68163 38973 ft 458 kts 119°
2026-05-05 21:45 43.56571 -115.61217 38968 ft 457 kts 119°
2026-05-05 21:46 43.52696 -115.54182 38970 ft 459 kts 119°
2026-05-05 21:46 43.48870 -115.47234 38968 ft 457 kts 118°
2026-05-05 21:47 43.45024 -115.40258 38974 ft 456 kts 118°
2026-05-05 21:47 43.41188 -115.33315 38979 ft 456 kts 119°
2026-05-05 21:48 43.37330 -115.26345 38980 ft 457 kts 119°
2026-05-05 21:48 43.33489 -115.19421 38968 ft 457 kts 119°
2026-05-05 21:49 43.29655 -115.12537 38976 ft 456 kts 119°
2026-05-05 21:49 43.25785 -115.05591 38958 ft 456 kts 119°
2026-05-05 21:50 43.21954 -114.98734 38953 ft 457 kts 120°
2026-05-05 21:50 43.18069 -114.91801 38923 ft 457 kts 120°
2026-05-05 21:51 43.14220 -114.84946 38895 ft 456 kts 120°
2026-05-05 21:51 43.10343 -114.78059 38892 ft 457 kts 120°
2026-05-05 21:52 43.04546 -114.67789 38897 ft 455 kts 120°
2026-05-05 21:53 43.00664 -114.60932 38883 ft 455 kts 120°
2026-05-05 21:53 42.96803 -114.54127 38864 ft 456 kts 120°
2026-05-05 21:54 42.92922 -114.47304 38869 ft 456 kts 120°
2026-05-05 21:54 42.89035 -114.40486 38856 ft 455 kts 120°
2026-05-05 21:55 42.85146 -114.33679 38885 ft 454 kts 121°
2026-05-05 21:55 42.81256 -114.26885 38886 ft 456 kts 121°
2026-05-05 21:56 42.77347 -114.20074 38898 ft 456 kts 120°
2026-05-05 21:56 42.75413 -114.16711 38773 ft 456 kts 121°
2026-05-05 21:56 42.73446 -114.13294 38451 ft 454 kts 121°
2026-05-05 21:56 42.71510 -114.09934 38126 ft 451 kts 121°
2026-05-05 21:57 42.69584 -114.06599 37800 ft 448 kts 120°
2026-05-05 21:57 42.67676 -114.03297 37488 ft 446 kts 120°
2026-05-05 21:57 42.65758 -113.99974 37183 ft 447 kts 120°
2026-05-05 21:57 42.63865 -113.96699 36878 ft 448 kts 120°
2026-05-05 21:58 42.61941 -113.93376 36575 ft 448 kts 120°
2026-05-05 21:58 42.60006 -113.90041 36284 ft 449 kts 120°
2026-05-05 21:58 42.58011 -113.86785 36025 ft 452 kts 124°
2026-05-05 21:58 42.55848 -113.83665 35805 ft 457 kts 127°
2026-05-05 21:59 42.53596 -113.80638 35581 ft 457 kts 128°
2026-05-05 21:59 42.51314 -113.77594 35356 ft 458 kts 128°
2026-05-05 21:59 42.49045 -113.74567 35129 ft 459 kts 128°
2026-05-05 21:59 42.46775 -113.71537 34904 ft 460 kts 128°
2026-05-05 22:00 42.44501 -113.68501 34678 ft 460 kts 127°
2026-05-05 22:00 42.42226 -113.65465 34454 ft 461 kts 127°
2026-05-05 22:00 42.39939 -113.62411 34232 ft 462 kts 127°
2026-05-05 22:00 42.37657 -113.59367 33973 ft 461 kts 127°
2026-05-05 22:01 42.35370 -113.56317 33716 ft 461 kts 128°
2026-05-05 22:01 42.33084 -113.53274 33452 ft 463 kts 127°
2026-05-05 22:01 42.30803 -113.50242 33187 ft 463 kts 128°
2026-05-05 22:01 42.28510 -113.47201 32925 ft 463 kts 128°
2026-05-05 22:02 42.26217 -113.44165 32660 ft 463 kts 128°
2026-05-05 22:02 42.23911 -113.41116 32395 ft 460 kts 128°
2026-05-05 22:02 42.21637 -113.38114 32130 ft 459 kts 128°
2026-05-05 22:02 42.19382 -113.35139 31863 ft 457 kts 128°
2026-05-05 22:03 42.17076 -113.32091 31590 ft 456 kts 129°
2026-05-05 22:03 42.14824 -113.29126 31313 ft 453 kts 128°
2026-05-05 22:03 42.12581 -113.26170 31007 ft 452 kts 129°
2026-05-05 22:03 42.10337 -113.23219 30629 ft 448 kts 128°
2026-05-05 22:04 42.08116 -113.20296 30220 ft 445 kts 129°
2026-05-05 22:04 42.05910 -113.17399 29786 ft 442 kts 129°
2026-05-05 22:04 42.03735 -113.14542 29347 ft 439 kts 129°
2026-05-05 22:04 42.01557 -113.11687 28932 ft 435 kts 129°
2026-05-05 22:05 41.99397 -113.08857 28525 ft 432 kts 129°
2026-05-05 22:05 41.97241 -113.06037 28121 ft 428 kts 129°
2026-05-05 22:05 41.95133 -113.03281 27700 ft 424 kts 129°
2026-05-05 22:05 41.93033 -113.00535 27275 ft 421 kts 130°
2026-05-05 22:06 41.90945 -112.97810 26839 ft 419 kts 130°
2026-05-05 22:06 41.88862 -112.95095 26402 ft 416 kts 130°
2026-05-05 22:06 41.86780 -112.92383 25982 ft 412 kts 130°
2026-05-05 22:06 41.84723 -112.89707 25551 ft 409 kts 131°
2026-05-05 22:07 41.82701 -112.87074 25128 ft 406 kts 131°
2026-05-05 22:07 41.80683 -112.84457 24680 ft 403 kts 131°
2026-05-05 22:07 41.78677 -112.81855 24245 ft 400 kts 131°
2026-05-05 22:07 41.76688 -112.79278 23846 ft 396 kts 131°
2026-05-05 22:08 41.74728 -112.76738 23449 ft 392 kts 132°
2026-05-05 22:08 41.72784 -112.74222 23043 ft 389 kts 132°
2026-05-05 22:08 41.70844 -112.71719 22630 ft 386 kts 132°
2026-05-05 22:08 41.68916 -112.69231 22213 ft 383 kts 132°
2026-05-05 22:09 41.67009 -112.66775 21783 ft 381 kts 132°
2026-05-05 22:09 41.65107 -112.64325 21357 ft 379 kts 133°
2026-05-05 22:09 41.63225 -112.61897 20957 ft 376 kts 133°
2026-05-05 22:09 41.61341 -112.59474 20540 ft 374 kts 133°
2026-05-05 22:10 41.59483 -112.57086 20131 ft 372 kts 133°
2026-05-05 22:10 41.57610 -112.54678 19711 ft 371 kts 133°
2026-05-05 22:10 41.55757 -112.52301 19313 ft 369 kts 133°
2026-05-05 22:10 41.53933 -112.49963 18913 ft 367 kts 133°
2026-05-05 22:11 41.52046 -112.47648 18489 ft 366 kts 136°
2026-05-05 22:11 41.50153 -112.45428 18075 ft 364 kts 136°
2026-05-05 22:11 41.48243 -112.43208 17655 ft 363 kts 136°
2026-05-05 22:11 41.46343 -112.41000 17239 ft 361 kts 137°
2026-05-05 22:12 41.44374 -112.38964 16833 ft 360 kts 144°
2026-05-05 22:12 41.42220 -112.37254 16422 ft 359 kts 151°
2026-05-05 22:12 41.40019 -112.35786 16024 ft 357 kts 152°
2026-05-05 22:12 41.37781 -112.34348 15620 ft 354 kts 153°
2026-05-05 22:13 41.35547 -112.32914 15218 ft 352 kts 153°
2026-05-05 22:13 41.33370 -112.31507 14826 ft 351 kts 153°
2026-05-05 22:13 41.31188 -112.30087 14420 ft 349 kts 153°
2026-05-05 22:13 41.29005 -112.28665 14043 ft 347 kts 153°
2026-05-05 22:14 41.26838 -112.27252 13624 ft 346 kts 153°
2026-05-05 22:14 41.24690 -112.25853 13285 ft 342 kts 153°
2026-05-05 22:14 41.22586 -112.24483 13041 ft 335 kts 153°
2026-05-05 22:14 41.20534 -112.23148 12966 ft 321 kts 153°
2026-05-05 22:15 41.18556 -112.21861 12943 ft 313 kts 153°
2026-05-05 22:15 41.16587 -112.20578 12948 ft 312 kts 153°
2026-05-05 22:15 41.14659 -112.19324 12961 ft 311 kts 153°
2026-05-05 22:15 41.12705 -112.18054 12980 ft 311 kts 153°
2026-05-05 22:16 41.10756 -112.16791 12965 ft 312 kts 153°
2026-05-05 22:16 41.08807 -112.15560 12953 ft 312 kts 156°
2026-05-05 22:16 41.06749 -112.14606 12949 ft 312 kts 165°
2026-05-05 22:16 41.04636 -112.14017 12943 ft 313 kts 170°
2026-05-05 22:17 41.02471 -112.13555 12931 ft 314 kts 172°
2026-05-05 22:17 41.00324 -112.13119 12828 ft 313 kts 172°
2026-05-05 22:17 40.98161 -112.12672 12634 ft 311 kts 171°
2026-05-05 22:17 40.96042 -112.12228 12305 ft 308 kts 171°
2026-05-05 22:18 40.93929 -112.11774 11941 ft 307 kts 171°
2026-05-05 22:18 40.91811 -112.11320 11596 ft 304 kts 171°
2026-05-05 22:18 40.89734 -112.10917 11267 ft 301 kts 174°
2026-05-05 22:18 40.87642 -112.10652 11061 ft 297 kts 175°
2026-05-05 22:19 40.85564 -112.10408 11058 ft 298 kts 176°
2026-05-05 22:19 40.83517 -112.10171 11058 ft 298 kts 175°
2026-05-05 22:19 40.81437 -112.09931 11053 ft 296 kts 175°
2026-05-05 22:19 40.79440 -112.09702 11043 ft 280 kts 176°
2026-05-05 22:20 40.77523 -112.09481 11043 ft 274 kts 175°
2026-05-05 22:20 40.75617 -112.09261 11049 ft 273 kts 175°
2026-05-05 22:20 40.73716 -112.09042 11048 ft 273 kts 176°
2026-05-05 22:20 40.71832 -112.08822 11052 ft 274 kts 175°
2026-05-05 22:21 40.69911 -112.08598 11056 ft 273 kts 175°
2026-05-05 22:21 40.68019 -112.08379 11059 ft 274 kts 175°
2026-05-05 22:21 40.66103 -112.08156 11059 ft 274 kts 176°
2026-05-05 22:21 40.64251 -112.07937 11054 ft 260 kts 175°
2026-05-05 22:22 40.62502 -112.07733 11040 ft 245 kts 175°
2026-05-05 22:22 40.60849 -112.07545 11049 ft 236 kts 175°
2026-05-05 22:22 40.59200 -112.07355 11020 ft 235 kts 175°
2026-05-05 22:22 40.57571 -112.07166 11004 ft 234 kts 175°
2026-05-05 22:23 40.55950 -112.06977 11006 ft 234 kts 175°
2026-05-05 22:23 40.54315 -112.06782 10996 ft 234 kts 175°
2026-05-05 22:23 40.52698 -112.06593 10993 ft 234 kts 175°
2026-05-05 22:23 40.51066 -112.06403 10997 ft 234 kts 175°
2026-05-05 22:24 40.49434 -112.06211 10999 ft 233 kts 175°
2026-05-05 22:24 40.47832 -112.06024 10996 ft 234 kts 175°
2026-05-05 22:24 40.46197 -112.05833 10998 ft 233 kts 175°
2026-05-05 22:24 40.44591 -112.05652 10997 ft 232 kts 175°
2026-05-05 22:25 40.42961 -112.05471 11004 ft 233 kts 175°
2026-05-05 22:25 40.41356 -112.05283 11012 ft 233 kts 171°
2026-05-05 22:25 40.39894 -112.04472 10970 ft 222 kts 131°
2026-05-05 22:25 40.39255 -112.02794 10974 ft 201 kts 90°
2026-05-05 22:26 40.39424 -112.01017 11005 ft 194 kts 63°
2026-05-05 22:26 40.40118 -111.99555 11105 ft 192 kts 48°
2026-05-05 22:26 40.40959 -111.98182 11052 ft 191 kts 48°
2026-05-05 22:26 40.41779 -111.96801 11027 ft 191 kts 49°
2026-05-05 22:27 40.42570 -111.95416 11020 ft 191 kts 50°
2026-05-05 22:27 40.43462 -111.94141 11011 ft 188 kts 31°
2026-05-05 22:27 40.44673 -111.93565 11019 ft 184 kts
2026-05-05 22:27 40.45933 -111.93632 10944 ft 179 kts 353°
2026-05-05 22:28 40.47173 -111.93787 10595 ft 179 kts 353°
2026-05-05 22:28 40.48409 -111.93944 10145 ft 181 kts 353°
2026-05-05 22:28 40.49665 -111.94098 9719 ft 182 kts 353°
2026-05-05 22:28 40.50923 -111.94249 9394 ft 182 kts 353°
2026-05-05 22:29 40.52200 -111.94401 9108 ft 184 kts 354°
2026-05-05 22:29 40.53467 -111.94544 8838 ft 183 kts 354°
2026-05-05 22:29 40.54731 -111.94684 8559 ft 182 kts 354°
2026-05-05 22:29 40.56004 -111.94827 8303 ft 181 kts 354°
2026-05-05 22:30 40.57251 -111.94968 8072 ft 181 kts 354°
2026-05-05 22:30 40.58513 -111.95113 7837 ft 181 kts 354°
2026-05-05 22:30 40.59758 -111.95257 7603 ft 179 kts 355°
2026-05-05 22:30 40.61013 -111.95402 7366 ft 179 kts 354°
2026-05-05 22:31 40.62261 -111.95548 7137 ft 180 kts 355°
2026-05-05 22:31 40.63502 -111.95692 6901 ft 177 kts 355°
2026-05-05 22:31 40.64697 -111.95831 6656 ft 167 kts 355°
2026-05-05 22:31 40.65819 -111.95963 6429 ft 157 kts 355°
2026-05-05 22:32 40.66897 -111.96089 6226 ft 153 kts 355°
2026-05-05 22:32 40.67959 -111.96212 6069 ft 151 kts 355°
2026-05-05 22:32 40.68984 -111.96330 5875 ft 145 kts 355°
2026-05-05 22:32 40.69974 -111.96445 5688 ft 144 kts 355°
2026-05-05 22:33 40.70976 -111.96560 5491 ft 143 kts 354°
2026-05-05 22:33 40.71962 -111.96674 5302 ft 143 kts 355°
2026-05-05 22:33 40.72955 -111.96790 5111 ft 142 kts 355°
2026-05-05 22:33 40.73947 -111.96905 4923 ft 142 kts 355°
2026-05-05 22:34 40.74931 -111.97019 4737 ft 141 kts 355°
2026-05-05 22:34 40.75905 -111.97139 4558 ft 141 kts 355°
2026-05-05 22:34 40.76885 -111.97240 4368 ft 140 kts 355°
2026-05-05 22:34 40.77848 -111.97366 4234 ft 137 kts 356°
2026-05-05 22:35 40.78653 -111.97452 4230 ft 91 kts 355°
2026-05-05 22:35 40.79117 -111.97505 4229 ft 37 kts 354°
2026-05-05 22:35 40.79321 -111.97531 4229 ft 23 kts 349°
2026-05-05 22:35 40.79461 -111.97596 4229 ft 16 kts 335°
2026-05-05 22:36 40.79543 -111.97668 4229 ft 13 kts 307°
2026-05-05 22:36 40.79525 -111.97767 4229 ft 13 kts 193°
2026-05-05 22:36 40.79429 -111.97759 4228 ft 14 kts 175°
2026-05-05 22:36 40.79329 -111.97748 4228 ft 14 kts 175°
2026-05-05 22:37 40.79225 -111.97736 4228 ft 14 kts 174°
2026-05-05 22:37 40.79122 -111.97723 4228 ft 14 kts 174°
2026-05-05 22:37 40.79018 -111.97710 4228 ft 14 kts 175°
2026-05-05 22:37 40.78918 -111.97699 4229 ft 13 kts 175°
2026-05-05 22:38 40.78845 -111.97703 4229 ft 10 kts 213°
2026-05-05 22:38 40.78822 -111.97794 4229 ft 11 kts 264°
2026-05-05 22:38 40.78810 -111.97901 4229 ft 12 kts 262°
2026-05-05 22:38 40.78802 -111.98016 4229 ft 12 kts 265°
2026-05-05 22:39 40.78794 -111.98136 4229 ft 13 kts 265°
2026-05-05 22:39 40.78788 -111.98244 4229 ft 3 kts 265°
2026-05-05 22:39 40.78787 -111.98251 4229 ft 1 kts 265°
2026-05-05 22:39 40.78785 -111.98287 4228 ft 2 kts 265°
2026-05-05 22:40 40.78784 -111.98308 4228 ft 2 kts 266°
2026-05-05 22:40 40.78781 -111.98360 4228 ft 7 kts 264°
2026-05-05 22:40 40.78789 -111.98414 4228 ft 4 kts 320°
2026-05-05 22:40 40.78827 -111.98425 4228 ft 5 kts 355°
2026-05-05 22:41 40.78851 -111.98428 4228 ft 0 kts 355°